TimePDT,TemperatureF,Dew PointF,Humidity,Sea Level PressureIn,VisibilityMPH,Wind Direction,Wind SpeedMPH,Gust SpeedMPH,PrecipitationIn,Events,Conditions,WindDirDegrees,DateUTC
12:56 AM,82.0,28.9,14,29.56,10.0,WSW,6.9,-,N/A,,Clear,250,2013-05-28 07:56:00
1:56 AM,81.0,30.0,16,29.55,10.0,WSW,8.1,-,N/A,,Clear,250,2013-05-28 08:56:00
2:56 AM,82.9,30.9,15,29.55,10.0,SW,6.9,-,N/A,,Clear,230,2013-05-28 09:56:00
3:56 AM,79.0,30.9,17,29.55,10.0,WSW,4.6,-,N/A,,Clear,240,2013-05-28 10:56:00
4:56 AM,78.1,34.0,20,29.55,10.0,West,3.5,-,N/A,,Clear,270,2013-05-28 11:56:00
5:56 AM,75.9,33.1,21,29.56,10.0,West,6.9,-,N/A,,Clear,270,2013-05-28 12:56:00
6:56 AM,79.0,33.1,19,29.56,10.0,West,8.1,-,N/A,,Clear,260,2013-05-28 13:56:00
7:56 AM,82.0,34.0,18,29.56,10.0,West,6.9,-,N/A,,Clear,270,2013-05-28 14:56:00
8:56 AM,84.9,36.0,17,29.55,10.0,South,10.4,-,N/A,,Clear,180,2013-05-28 15:56:00
9:56 AM,84.9,37.9,19,29.56,10.0,Variable,6.9,-,N/A,,Clear,0,2013-05-28 16:56:00
10:56 AM,88.0,37.9,17,29.55,10.0,SSW,12.7,19.6,N/A,,Clear,210,2013-05-28 17:56:00
11:56 AM,91.0,39.0,16,29.54,10.0,SSW,13.8,20.7,N/A,,Clear,200,2013-05-28 18:56:00
12:56 PM,93.0,39.0,15,29.50,10.0,SW,17.3,20.7,N/A,,Clear,230,2013-05-28 19:56:00
1:56 PM,93.9,39.0,15,29.49,10.0,WSW,13.8,17.3,N/A,,Clear,240,2013-05-28 20:56:00
2:56 PM,97.0,37.9,13,29.47,10.0,West,12.7,23.0,N/A,,Clear,280,2013-05-28 21:56:00
3:56 PM,97.0,37.0,12,29.45,10.0,WSW,16.1,25.3,N/A,,Clear,250,2013-05-28 22:56:00
4:56 PM,96.1,36.0,12,29.43,10.0,SW,11.5,23.0,N/A,,Clear,230,2013-05-28 23:56:00
5:56 PM,97.0,33.1,11,29.42,10.0,West,16.1,24.2,N/A,,Clear,280,2013-05-29 00:56:00
6:56 PM,96.1,34.0,11,29.42,10.0,West,17.3,23.0,N/A,,Clear,270,2013-05-29 01:56:00
7:56 PM,93.0,33.1,12,29.43,10.0,West,12.7,-,N/A,,Clear,280,2013-05-29 02:56:00
8:56 PM,91.9,34.0,13,29.44,10.0,WNW,11.5,-,N/A,,Clear,300,2013-05-29 03:56:00
9:56 PM,90.0,37.9,16,29.47,10.0,WNW,13.8,-,N/A,,Clear,290,2013-05-29 04:56:00
10:56 PM,88.0,37.9,17,29.48,10.0,NW,15.0,-,N/A,,Clear,310,2013-05-29 05:56:00
11:56 PM,88.0,36.0,16,29.51,10.0,NNW,18.4,-,N/A,,Clear,330,2013-05-29 06:56:00